Location: Aulus
(42.7909°N, 1.3399°E)
Time: 21:07:05
(UTC+00:00)

Cosmos 1782 - Pass Details

Date: 19 May 2025
Orbit: 478 x 490 km, 82.5° (Epoch: 12 June)

Event Time Altitude Azimuth Distance (km) Brightness Sun altitude
Rises 20:18:25 0° 198° (SSW) 2,555 6.0 -10.4°
Reaches altitude 10° 20:20:33 10° 203° (SSW) 1,678 5.1 -10.7°
Maximum altitude 20:24:09 52° 280° (W) 617 3.4 -11.2°
Drops below altitude 10° 20:27:45 10° 358° (N) 1,686 6.0 -11.7°
Sets 20:29:54 0° 4° (N) 2,569 6.8 -12.0°
